owner,sensor,date,latitude,longitude,vertical_datum,mass_concentration_of_oxygen_in_sea_water,qcFlag 
DISL,ioos:station:DISL:CATA:1,2018-07-01T00:30:00Z,30.3085,-88.1395,2.116,5.17,1111122 
DISL,ioos:station:DISL:CATA:1,2018-07-01T01:30:00Z,30.3085,-88.1395,2.09,4.09,1111122 
DISL,ioos:station:DISL:CATA:1,2018-07-01T02:30:00Z,30.3085,-88.1395,2.08,3.84,1111122 
DISL,ioos:station:DISL:CATA:1,2018-07-01T03:30:00Z,30.3085,-88.1395,2.066,3.04,1111122 
DISL,ioos:station:DISL:CATA:1,2018-07-01T04:30:00Z,30.3085,-88.1395,2.05,3.88,1111122 
DISL,ioos:station:DISL:CATA:1,2018-07-01T05:30:00Z,30.3085,-88.1395,2.027,4.7,1111122 
DISL,ioos:station:DISL:CATA:1,2018-07-01T06:30:00Z,30.3085,-88.1395,2.139,3.88,1111122 
DISL,ioos:station:DISL:CATA:1,2018-07-01T07:30:00Z,30.3085,-88.1395,2.092,4.26,1111122 
DISL,ioos:station:DISL:CATA:1,2018-07-01T08:30:00Z,30.3085,-88.1395,2.144,2.71,1111122 
DISL,ioos:station:DISL:CATA:1,2018-07-01T09:30:00Z,30.3085,-88.1395,2.256,3.72,1111122 
DISL,ioos:station:DISL:CATA:1,2018-07-01T10:30:00Z,30.3085,-88.1395,2.309,4.4,1111122 
DISL,ioos:station:DISL:CATA:1,2018-07-01T11:30:00Z,30.3085,-88.1395,2.386,4.07,1111122 
DISL,ioos:station:DISL:CATA:1,2018-07-01T12:30:00Z,30.3085,-88.1395,2.425,4.44,1111122 
DISL,ioos:station:DISL:CATA:1,2018-07-01T13:30:00Z,30.3085,-88.1395,2.446,5.13,1111122 
DISL,ioos:station:DISL:CATA:1,2018-07-01T14:30:00Z,30.3085,-88.1395,2.501,5.22,1111122 
DISL,ioos:station:DISL:CATA:1,2018-07-01T15:30:00Z,30.3085,-88.1395,2.534,6.14,1111122 
DISL,ioos:station:DISL:CATA:1,2018-07-01T16:30:00Z,30.3085,-88.1395,2.541,6.75,1111122 
DISL,ioos:station:DISL:CATA:1,2018-07-01T17:30:00Z,30.3085,-88.1395,2.528,6.64,1111122 
DISL,ioos:station:DISL:CATA:1,2018-07-01T18:30:00Z,30.3085,-88.1395,2.509,6.73,1111122 
DISL,ioos:station:DISL:CATA:1,2018-07-01T19:30:00Z,30.3085,-88.1395,2.46,5.48,1111122 
DISL,ioos:station:DISL:CATA:1,2018-07-01T20:30:00Z,30.3085,-88.1395,2.413,5.27,1111122 
DISL,ioos:station:DISL:CATA:1,2018-07-01T21:30:00Z,30.3085,-88.1395,2.361,5.83,1111122 
DISL,ioos:station:DISL:CATA:1,2018-07-01T22:30:00Z,30.3085,-88.1395,2.418,5.98,1111122 
DISL,ioos:station:DISL:CATA:1,2018-07-01T23:30:00Z,30.3085,-88.1395,2.266,6.22,1111122 
DISL,ioos:station:DISL:CATA:1,2018-07-02T00:30:00Z,30.3085,-88.1395,2.153,7.37,1111122 
DISL,ioos:station:DISL:CATA:1,2018-07-02T01:30:00Z,30.3085,-88.1395,2.174,7.23,1111122 
DISL,ioos:station:DISL:CATA:1,2018-07-02T02:30:00Z,30.3085,-88.1395,2.128,7.25,1111122 
DISL,ioos:station:DISL:CATA:1,2018-07-02T03:30:00Z,30.3085,-88.1395,2.102,6.91,1111122 
DISL,ioos:station:DISL:CATA:1,2018-07-02T04:30:00Z,30.3085,-88.1395,2.066,6.86,1111122 
DISL,ioos:station:DISL:CATA:1,2018-07-02T05:30:00Z,30.3085,-88.1395,2.114,7.02,1111122 
DISL,ioos:station:DISL:CATA:1,2018-07-02T06:30:00Z,30.3085,-88.1395,2.177,5.17,1111122 
DISL,ioos:station:DISL:CATA:1,2018-07-02T07:30:00Z,30.3085,-88.1395,2.217,6.92,1111122 
DISL,ioos:station:DISL:CATA:1,2018-07-02T08:30:00Z,30.3085,-88.1395,2.231,6.41,1111122 
DISL,ioos:station:DISL:CATA:1,2018-07-02T09:30:00Z,30.3085,-88.1395,2.281,6.22,1111122 
DISL,ioos:station:DISL:CATA:1,2018-07-02T10:30:00Z,30.3085,-88.1395,2.339,5.66,1111122 
DISL,ioos:station:DISL:CATA:1,2018-07-02T11:30:00Z,30.3085,-88.1395,2.36,5.02,1111122 
DISL,ioos:station:DISL:CATA:1,2018-07-02T12:30:00Z,30.3085,-88.1395,2.434,5.15,1111122 
DISL,ioos:station:DISL:CATA:1,2018-07-02T13:30:00Z,30.3085,-88.1395,2.47,5.48,1111122 
DISL,ioos:station:DISL:CATA:1,2018-07-02T14:30:00Z,30.3085,-88.1395,2.527,5.42,1111122 
DISL,ioos:station:DISL:CATA:1,2018-07-02T15:30:00Z,30.3085,-88.1395,2.552,5.43,1111122 
DISL,ioos:station:DISL:CATA:1,2018-07-02T16:30:00Z,30.3085,-88.1395,2.559,5.67,1111122 
DISL,ioos:station:DISL:CATA:1,2018-07-02T17:30:00Z,30.3085,-88.1395,2.59,5.38,1111122 
DISL,ioos:station:DISL:CATA:1,2018-07-02T18:30:00Z,30.3085,-88.1395,2.584,5.14,1111122 
DISL,ioos:station:DISL:CATA:1,2018-07-02T19:30:00Z,30.3085,-88.1395,2.56,4.95,1111122 
DISL,ioos:station:DISL:CATA:1,2018-07-02T20:30:00Z,30.3085,-88.1395,2.548,2.25,1111122 
DISL,ioos:station:DISL:CATA:1,2018-07-02T21:30:00Z,30.3085,-88.1395,2.448,3.0,1111122 
DISL,ioos:station:DISL:CATA:1,2018-07-02T22:30:00Z,30.3085,-88.1395,2.453,7.21,1111122 
DISL,ioos:station:DISL:CATA:1,2018-07-02T23:30:00Z,30.3085,-88.1395,2.401,8.26,1111122 
DISL,ioos:station:DISL:CATA:1,2018-07-03T00:30:00Z,30.3085,-88.1395,2.317,7.76,1111122 
DISL,ioos:station:DISL:CATA:1,2018-07-03T01:30:00Z,30.3085,-88.1395,2.251,7.29,1111122 
DISL,ioos:station:DISL:CATA:1,2018-07-03T02:30:00Z,30.3085,-88.1395,2.196,7.2,1111122 
DISL,ioos:station:DISL:CATA:1,2018-07-03T03:30:00Z,30.3085,-88.1395,2.177,7.13,1111122 
DISL,ioos:station:DISL:CATA:1,2018-07-03T04:30:00Z,30.3085,-88.1395,2.183,7.15,1111122 
DISL,ioos:station:DISL:CATA:1,2018-07-03T05:30:00Z,30.3085,-88.1395,2.214,7.15,1111122 
DISL,ioos:station:DISL:CATA:1,2018-07-03T06:30:00Z,30.3085,-88.1395,2.256,6.95,1111122 
DISL,ioos:station:DISL:CATA:1,2018-07-03T07:30:00Z,30.3085,-88.1395,2.303,5.85,1111122 
DISL,ioos:station:DISL:CATA:1,2018-07-03T08:30:00Z,30.3085,-88.1395,2.346,6.35,1111122 
DISL,ioos:station:DISL:CATA:1,2018-07-03T09:30:00Z,30.3085,-88.1395,2.394,6.8,1111122 
DISL,ioos:station:DISL:CATA:1,2018-07-03T10:30:00Z,30.3085,-88.1395,2.447,6.57,1111122 
DISL,ioos:station:DISL:CATA:1,2018-07-03T11:30:00Z,30.3085,-88.1395,2.485,5.83,1111122 
DISL,ioos:station:DISL:CATA:1,2018-07-03T12:30:00Z,30.3085,-88.1395,2.542,5.07,1111122 
DISL,ioos:station:DISL:CATA:1,2018-07-03T13:30:00Z,30.3085,-88.1395,2.553,3.35,1111122 
DISL,ioos:station:DISL:CATA:1,2018-07-03T14:30:00Z,30.3085,-88.1395,2.574,4.94,1111122 
DISL,ioos:station:DISL:CATA:1,2018-07-03T15:30:00Z,30.3085,-88.1395,2.615,6.21,1111122 
DISL,ioos:station:DISL:CATA:1,2018-07-03T16:30:00Z,30.3085,-88.1395,2.635,6.63,1111122 
DISL,ioos:station:DISL:CATA:1,2018-07-03T17:30:00Z,30.3085,-88.1395,2.647,6.52,1111122 
DISL,ioos:station:DISL:CATA:1,2018-07-03T18:30:00Z,30.3085,-88.1395,2.666,6.72,1111122 
DISL,ioos:station:DISL:CATA:1,2018-07-03T19:30:00Z,30.3085,-88.1395,2.655,6.75,1111122 
DISL,ioos:station:DISL:CATA:1,2018-07-03T20:30:00Z,30.3085,-88.1395,2.635,6.88,1111122 
DISL,ioos:station:DISL:CATA:1,2018-07-03T21:30:00Z,30.3085,-88.1395,2.611,7.0,1111122 
DISL,ioos:station:DISL:CATA:1,2018-07-03T22:30:00Z,30.3085,-88.1395,2.546,7.06,1111122 
DISL,ioos:station:DISL:CATA:1,2018-07-03T23:30:00Z,30.3085,-88.1395,2.492,7.1,1111122 
DISL,ioos:station:DISL:CATA:1,2018-07-04T00:30:00Z,30.3085,-88.1395,2.442,7.2,1111122 
DISL,ioos:station:DISL:CATA:1,2018-07-04T01:30:00Z,30.3085,-88.1395,2.372,7.32,1111122 
DISL,ioos:station:DISL:CATA:1,2018-07-04T02:30:00Z,30.3085,-88.1395,2.335,7.02,1111122 
DISL,ioos:station:DISL:CATA:1,2018-07-04T03:30:00Z,30.3085,-88.1395,2.308,6.88,1111122 
DISL,ioos:station:DISL:CATA:1,2018-07-04T04:30:00Z,30.3085,-88.1395,2.284,6.89,1111122 
DISL,ioos:station:DISL:CATA:1,2018-07-04T05:30:00Z,30.3085,-88.1395,2.305,6.94,1111122 
DISL,ioos:station:DISL:CATA:1,2018-07-04T06:30:00Z,30.3085,-88.1395,2.327,6.39,1111122 
DISL,ioos:station:DISL:CATA:1,2018-07-04T07:30:00Z,30.3085,-88.1395,2.375,3.07,1111122 
DISL,ioos:station:DISL:CATA:1,2018-07-04T08:30:00Z,30.3085,-88.1395,2.401,5.79,1111122 
DISL,ioos:station:DISL:CATA:1,2018-07-04T09:30:00Z,30.3085,-88.1395,2.417,6.06,1111122 
DISL,ioos:station:DISL:CATA:1,2018-07-04T10:30:00Z,30.3085,-88.1395,2.465,6.12,1111122 
DISL,ioos:station:DISL:CATA:1,2018-07-04T11:30:00Z,30.3085,-88.1395,2.49,5.46,1111122 
DISL,ioos:station:DISL:CATA:1,2018-07-04T12:30:00Z,30.3085,-88.1395,2.533,4.17,1111122 
DISL,ioos:station:DISL:CATA:1,2018-07-04T13:30:00Z,30.3085,-88.1395,2.592,3.2,1111122 
DISL,ioos:station:DISL:CATA:1,2018-07-04T14:30:00Z,30.3085,-88.1395,2.597,3.99,1111122 
DISL,ioos:station:DISL:CATA:1,2018-07-04T15:30:00Z,30.3085,-88.1395,2.612,3.97,1111122 
DISL,ioos:station:DISL:CATA:1,2018-07-04T16:30:00Z,30.3085,-88.1395,2.649,1.94,1111122 
DISL,ioos:station:DISL:CATA:1,2018-07-04T17:30:00Z,30.3085,-88.1395,2.637,1.12,1111122 
DISL,ioos:station:DISL:CATA:1,2018-07-04T18:30:00Z,30.3085,-88.1395,2.616,0.8,1111122 
DISL,ioos:station:DISL:CATA:1,2018-07-04T19:30:00Z,30.3085,-88.1395,2.6,0.5,1111122 
DISL,ioos:station:DISL:CATA:1,2018-07-04T20:30:00Z,30.3085,-88.1395,2.591,0.75,1111122 
DISL,ioos:station:DISL:CATA:1,2018-07-04T21:30:00Z,30.3085,-88.1395,2.563,0.57,1111122 
DISL,ioos:station:DISL:CATA:1,2018-07-04T22:30:00Z,30.3085,-88.1395,2.534,0.73,1111122 
DISL,ioos:station:DISL:CATA:1,2018-07-04T23:30:00Z,30.3085,-88.1395,2.494,1.45,1111122 
DISL,ioos:station:DISL:CATA:1,2018-07-05T00:30:00Z,30.3085,-88.1395,2.386,6.07,1111122 
DISL,ioos:station:DISL:CATA:1,2018-07-05T01:30:00Z,30.3085,-88.1395,2.347,8.09,1111122 
DISL,ioos:station:DISL:CATA:1,2018-07-05T02:30:00Z,30.3085,-88.1395,2.3,8.23,1111122 
DISL,ioos:station:DISL:CATA:1,2018-07-05T03:30:00Z,30.3085,-88.1395,2.299,7.75,1111122 
DISL,ioos:station:DISL:CATA:1,2018-07-05T04:30:00Z,30.3085,-88.1395,2.288,0.0,1114422 
DISL,ioos:station:DISL:CATA:1,2018-07-05T05:30:00Z,30.3085,-88.1395,2.298,0.0,1114422 
DISL,ioos:station:DISL:CATA:1,2018-07-05T06:30:00Z,30.3085,-88.1395,2.286,0.0,1114422 
DISL,ioos:station:DISL:CATA:1,2018-07-05T07:30:00Z,30.3085,-88.1395,2.306,0.0,1114422 
DISL,ioos:station:DISL:CATA:1,2018-07-05T08:30:00Z,30.3085,-88.1395,2.359,0.0,1114422 
DISL,ioos:station:DISL:CATA:1,2018-07-05T09:30:00Z,30.3085,-88.1395,2.415,0.0,1114422 
DISL,ioos:station:DISL:CATA:1,2018-07-05T10:30:00Z,30.3085,-88.1395,2.454,0.0,1114422 
DISL,ioos:station:DISL:CATA:1,2018-07-05T11:30:00Z,30.3085,-88.1395,2.456,0.0,1114422 
DISL,ioos:station:DISL:CATA:1,2018-07-05T12:30:00Z,30.3085,-88.1395,2.474,0.0,1114422 
DISL,ioos:station:DISL:CATA:1,2018-07-05T13:30:00Z,30.3085,-88.1395,2.501,0.0,1114422 
DISL,ioos:station:DISL:CATA:1,2018-07-05T14:30:00Z,30.3085,-88.1395,2.544,0.0,1114422 
DISL,ioos:station:DISL:CATA:1,2018-07-05T15:30:00Z,30.3085,-88.1395,2.558,0.0,1114422 
DISL,ioos:station:DISL:CATA:1,2018-07-05T16:30:00Z,30.3085,-88.1395,2.538,0.0,1114422 
DISL,ioos:station:DISL:CATA:1,2018-07-05T17:30:00Z,30.3085,-88.1395,2.567,0.0,1114422 
DISL,ioos:station:DISL:CATA:1,2018-07-05T18:30:00Z,30.3085,-88.1395,2.542,0.0,1114422 
DISL,ioos:station:DISL:CATA:1,2018-07-05T19:30:00Z,30.3085,-88.1395,2.546,0.0,1114422 
DISL,ioos:station:DISL:CATA:1,2018-07-05T20:30:00Z,30.3085,-88.1395,2.562,0.0,1114422 
DISL,ioos:station:DISL:CATA:1,2018-07-05T21:30:00Z,30.3085,-88.1395,2.534,0.0,1114422 
DISL,ioos:station:DISL:CATA:1,2018-07-05T22:30:00Z,30.3085,-88.1395,2.504,0.0,1114422 
DISL,ioos:station:DISL:CATA:1,2018-07-05T23:30:00Z,30.3085,-88.1395,2.501,0.0,1114422 
DISL,ioos:station:DISL:CATA:1,2018-07-06T00:30:00Z,30.3085,-88.1395,2.487,0.0,1114422 
DISL,ioos:station:DISL:CATA:1,2018-07-06T01:30:00Z,30.3085,-88.1395,2.464,0.0,1114422 
DISL,ioos:station:DISL:CATA:1,2018-07-06T02:30:00Z,30.3085,-88.1395,2.452,0.0,1114422 
DISL,ioos:station:DISL:CATA:1,2018-07-06T03:30:00Z,30.3085,-88.1395,2.444,0.0,1114422 
DISL,ioos:station:DISL:CATA:1,2018-07-06T04:30:00Z,30.3085,-88.1395,2.407,0.0,1114422 
DISL,ioos:station:DISL:CATA:1,2018-07-06T05:30:00Z,30.3085,-88.1395,2.395,0.0,1114422 
DISL,ioos:station:DISL:CATA:1,2018-07-06T06:30:00Z,30.3085,-88.1395,2.4,0.0,1114422 
DISL,ioos:station:DISL:CATA:1,2018-07-06T07:30:00Z,30.3085,-88.1395,2.438,0.0,1114422 
DISL,ioos:station:DISL:CATA:1,2018-07-06T08:30:00Z,30.3085,-88.1395,2.46,0.0,1114422 
DISL,ioos:station:DISL:CATA:1,2018-07-06T09:30:00Z,30.3085,-88.1395,2.467,0.0,1114422 
DISL,ioos:station:DISL:CATA:1,2018-07-06T10:30:00Z,30.3085,-88.1395,2.493,0.0,1114422 
DISL,ioos:station:DISL:CATA:1,2018-07-06T11:30:00Z,30.3085,-88.1395,2.531,0.0,1114422 
DISL,ioos:station:DISL:CATA:1,2018-07-06T12:30:00Z,30.3085,-88.1395,2.536,0.0,1114422 
DISL,ioos:station:DISL:CATA:1,2018-07-06T13:30:00Z,30.3085,-88.1395,2.549,0.0,1114422 
DISL,ioos:station:DISL:CATA:1,2018-07-06T14:30:00Z,30.3085,-88.1395,2.554,0.0,1114422 
DISL,ioos:station:DISL:CATA:1,2018-07-06T15:30:00Z,30.3085,-88.1395,2.553,0.0,1114422 
DISL,ioos:station:DISL:CATA:1,2018-07-06T16:30:00Z,30.3085,-88.1395,2.554,0.0,1114422 
DISL,ioos:station:DISL:CATA:1,2018-07-06T17:30:00Z,30.3085,-88.1395,2.535,0.0,1114422 
DISL,ioos:station:DISL:CATA:1,2018-07-06T18:00:00Z,30.3085,-88.1395,2.089,6.91,1111122 
DISL,ioos:station:DISL:CATA:1,2018-07-06T19:30:00Z,30.3085,-88.1395,2.103,7.17,1111122 
DISL,ioos:station:DISL:CATA:1,2018-07-06T20:00:00Z,30.3085,-88.1395,2.119,7.33,1111122 
DISL,ioos:station:DISL:CATA:1,2018-07-06T21:30:00Z,30.3085,-88.1395,2.099,3.55,1111122 
DISL,ioos:station:DISL:CATA:1,2018-07-06T22:30:00Z,30.3085,-88.1395,2.099,3.82,1111122 
DISL,ioos:station:DISL:CATA:1,2018-07-06T23:30:00Z,30.3085,-88.1395,2.063,3.33,1111122 
DISL,ioos:station:DISL:CATA:1,2018-07-07T00:30:00Z,30.3085,-88.1395,2.063,6.12,1111122 
DISL,ioos:station:DISL:CATA:1,2018-07-07T01:30:00Z,30.3085,-88.1395,2.044,6.81,1111122 
DISL,ioos:station:DISL:CATA:1,2018-07-07T02:30:00Z,30.3085,-88.1395,2.037,6.72,1111122 
DISL,ioos:station:DISL:CATA:1,2018-07-07T03:30:00Z,30.3085,-88.1395,2.026,6.4,1111122 
DISL,ioos:station:DISL:CATA:1,2018-07-07T04:30:00Z,30.3085,-88.1395,2.004,6.06,1111122 
DISL,ioos:station:DISL:CATA:1,2018-07-07T05:30:00Z,30.3085,-88.1395,1.997,6.04,1111122 
DISL,ioos:station:DISL:CATA:1,2018-07-07T06:30:00Z,30.3085,-88.1395,2.041,4.1,1111122 
DISL,ioos:station:DISL:CATA:1,2018-07-07T07:30:00Z,30.3085,-88.1395,2.061,6.43,1111122 
DISL,ioos:station:DISL:CATA:1,2018-07-07T08:30:00Z,30.3085,-88.1395,2.1,5.96,1111122 
DISL,ioos:station:DISL:CATA:1,2018-07-07T09:30:00Z,30.3085,-88.1395,2.137,5.52,1111122 
DISL,ioos:station:DISL:CATA:1,2018-07-07T10:30:00Z,30.3085,-88.1395,2.184,5.12,1111122 
DISL,ioos:station:DISL:CATA:1,2018-07-07T11:30:00Z,30.3085,-88.1395,2.19,3.81,1111122 
DISL,ioos:station:DISL:CATA:1,2018-07-07T12:30:00Z,30.3085,-88.1395,2.212,3.15,1111122 
DISL,ioos:station:DISL:CATA:1,2018-07-07T13:30:00Z,30.3085,-88.1395,2.221,2.86,1111122 
DISL,ioos:station:DISL:CATA:1,2018-07-07T14:30:00Z,30.3085,-88.1395,2.217,3.16,1111122 
DISL,ioos:station:DISL:CATA:1,2018-07-07T15:30:00Z,30.3085,-88.1395,2.191,2.8,1111122 
DISL,ioos:station:DISL:CATA:1,2018-07-07T16:30:00Z,30.3085,-88.1395,2.132,2.87,1111122 
DISL,ioos:station:DISL:CATA:1,2018-07-07T17:30:00Z,30.3085,-88.1395,2.07,3.82,1111122 
DISL,ioos:station:DISL:CATA:1,2018-07-07T18:30:00Z,30.3085,-88.1395,2.008,7.2,1111122 
DISL,ioos:station:DISL:CATA:1,2018-07-07T19:30:00Z,30.3085,-88.1395,1.976,7.44,1111122 
DISL,ioos:station:DISL:CATA:1,2018-07-07T20:30:00Z,30.3085,-88.1395,1.982,7.15,1111122 
DISL,ioos:station:DISL:CATA:1,2018-07-07T21:30:00Z,30.3085,-88.1395,1.973,7.28,1111122 
DISL,ioos:station:DISL:CATA:1,2018-07-07T22:30:00Z,30.3085,-88.1395,1.975,6.91,1111122 
DISL,ioos:station:DISL:CATA:1,2018-07-07T23:30:00Z,30.3085,-88.1395,1.98,7.33,1111122 
DISL,ioos:station:DISL:CATA:1,2018-07-08T00:30:00Z,30.3085,-88.1395,1.995,6.94,1111122 
DISL,ioos:station:DISL:CATA:1,2018-07-08T01:30:00Z,30.3085,-88.1395,1.978,3.22,1111122 
DISL,ioos:station:DISL:CATA:1,2018-07-08T02:30:00Z,30.3085,-88.1395,1.97,4.48,1111122 
DISL,ioos:station:DISL:CATA:1,2018-07-08T03:30:00Z,30.3085,-88.1395,1.985,5.39,1111122 
DISL,ioos:station:DISL:CATA:1,2018-07-08T04:30:00Z,30.3085,-88.1395,2.027,5.05,1111122 
DISL,ioos:station:DISL:CATA:1,2018-07-08T05:30:00Z,30.3085,-88.1395,2.05,4.3,1111122 
DISL,ioos:station:DISL:CATA:1,2018-07-08T06:30:00Z,30.3085,-88.1395,2.07,4.26,1111122 
DISL,ioos:station:DISL:CATA:1,2018-07-08T07:30:00Z,30.3085,-88.1395,2.116,5.34,1111122 
DISL,ioos:station:DISL:CATA:1,2018-07-08T08:30:00Z,30.3085,-88.1395,2.142,5.47,1111122 
DISL,ioos:station:DISL:CATA:1,2018-07-08T09:30:00Z,30.3085,-88.1395,2.213,5.99,1111122 
DISL,ioos:station:DISL:CATA:1,2018-07-08T10:30:00Z,30.3085,-88.1395,2.22,5.88,1111122 
DISL,ioos:station:DISL:CATA:1,2018-07-08T11:30:00Z,30.3085,-88.1395,2.254,5.48,1111122 
DISL,ioos:station:DISL:CATA:1,2018-07-08T12:30:00Z,30.3085,-88.1395,2.285,5.6,1111122 
DISL,ioos:station:DISL:CATA:1,2018-07-08T13:30:00Z,30.3085,-88.1395,2.266,4.44,1111122 
DISL,ioos:station:DISL:CATA:1,2018-07-08T14:30:00Z,30.3085,-88.1395,2.235,2.62,1111122 
DISL,ioos:station:DISL:CATA:1,2018-07-08T15:30:00Z,30.3085,-88.1395,2.196,4.14,1111122 
DISL,ioos:station:DISL:CATA:1,2018-07-08T16:30:00Z,30.3085,-88.1395,2.146,3.66,1111122 
DISL,ioos:station:DISL:CATA:1,2018-07-08T17:30:00Z,30.3085,-88.1395,2.093,5.56,1111122 
DISL,ioos:station:DISL:CATA:1,2018-07-08T18:30:00Z,30.3085,-88.1395,2.018,6.81,1111122 
DISL,ioos:station:DISL:CATA:1,2018-07-08T19:30:00Z,30.3085,-88.1395,1.97,7.8,1111122 
DISL,ioos:station:DISL:CATA:1,2018-07-08T20:30:00Z,30.3085,-88.1395,1.931,8.18,1111122 
DISL,ioos:station:DISL:CATA:1,2018-07-08T21:30:00Z,30.3085,-88.1395,1.93,8.3,1111122 
DISL,ioos:station:DISL:CATA:1,2018-07-08T22:30:00Z,30.3085,-88.1395,1.916,8.1,1111122 
DISL,ioos:station:DISL:CATA:1,2018-07-08T23:30:00Z,30.3085,-88.1395,1.925,7.09,1111122 
DISL,ioos:station:DISL:CATA:1,2018-07-09T00:30:00Z,30.3085,-88.1395,1.93,4.4,1111122 
DISL,ioos:station:DISL:CATA:1,2018-07-09T01:30:00Z,30.3085,-88.1395,1.966,3.57,1111122 
DISL,ioos:station:DISL:CATA:1,2018-07-09T02:30:00Z,30.3085,-88.1395,2.017,6.96,1111122 
DISL,ioos:station:DISL:CATA:1,2018-07-09T03:30:00Z,30.3085,-88.1395,2.085,7.08,1111122 
DISL,ioos:station:DISL:CATA:1,2018-07-09T04:30:00Z,30.3085,-88.1395,2.114,6.62,1111122 
DISL,ioos:station:DISL:CATA:1,2018-07-09T05:30:00Z,30.3085,-88.1395,2.146,6.79,1111122 
DISL,ioos:station:DISL:CATA:1,2018-07-09T06:30:00Z,30.3085,-88.1395,2.158,6.87,1111122 
DISL,ioos:station:DISL:CATA:1,2018-07-09T07:30:00Z,30.3085,-88.1395,2.2,5.97,1111122 
DISL,ioos:station:DISL:CATA:1,2018-07-09T08:30:00Z,30.3085,-88.1395,2.253,5.98,1111122 
DISL,ioos:station:DISL:CATA:1,2018-07-09T09:30:00Z,30.3085,-88.1395,2.286,4.62,1111122 
DISL,ioos:station:DISL:CATA:1,2018-07-09T10:30:00Z,30.3085,-88.1395,2.285,2.63,1111122 
DISL,ioos:station:DISL:CATA:1,2018-07-09T11:30:00Z,30.3085,-88.1395,2.292,1.87,1111122 
DISL,ioos:station:DISL:CATA:1,2018-07-09T12:30:00Z,30.3085,-88.1395,2.308,1.31,1111122 
DISL,ioos:station:DISL:CATA:1,2018-07-09T13:30:00Z,30.3085,-88.1395,2.321,1.63,1111122 
DISL,ioos:station:DISL:CATA:1,2018-07-09T14:30:00Z,30.3085,-88.1395,2.301,1.57,1111122 
DISL,ioos:station:DISL:CATA:1,2018-07-09T15:30:00Z,30.3085,-88.1395,2.258,2.08,1111122 
DISL,ioos:station:DISL:CATA:1,2018-07-09T16:30:00Z,30.3085,-88.1395,2.189,1.03,1111122 
DISL,ioos:station:DISL:CATA:1,2018-07-09T17:30:00Z,30.3085,-88.1395,2.089,3.25,1111122 
DISL,ioos:station:DISL:CATA:1,2018-07-09T18:30:00Z,30.3085,-88.1395,1.977,6.72,1111122 
DISL,ioos:station:DISL:CATA:1,2018-07-09T19:30:00Z,30.3085,-88.1395,1.876,7.32,1111122 
DISL,ioos:station:DISL:CATA:1,2018-07-09T20:30:00Z,30.3085,-88.1395,1.823,7.75,1111122 
DISL,ioos:station:DISL:CATA:1,2018-07-09T21:30:00Z,30.3085,-88.1395,1.782,7.62,1111122 
DISL,ioos:station:DISL:CATA:1,2018-07-09T22:30:00Z,30.3085,-88.1395,1.78,7.18,1111122 
DISL,ioos:station:DISL:CATA:1,2018-07-09T23:30:00Z,30.3085,-88.1395,1.781,4.89,1111122 
DISL,ioos:station:DISL:CATA:1,2018-07-10T00:30:00Z,30.3085,-88.1395,1.815,2.34,1111122 
DISL,ioos:station:DISL:CATA:1,2018-07-10T01:30:00Z,30.3085,-88.1395,1.831,7.2,1111122 
DISL,ioos:station:DISL:CATA:1,2018-07-10T02:30:00Z,30.3085,-88.1395,1.882,7.02,1111122 
DISL,ioos:station:DISL:CATA:1,2018-07-10T03:30:00Z,30.3085,-88.1395,1.933,6.86,1111122 
DISL,ioos:station:DISL:CATA:1,2018-07-10T04:30:00Z,30.3085,-88.1395,1.958,6.73,1111122 
DISL,ioos:station:DISL:CATA:1,2018-07-10T05:30:00Z,30.3085,-88.1395,1.988,6.51,1111122 
DISL,ioos:station:DISL:CATA:1,2018-07-10T06:30:00Z,30.3085,-88.1395,2.013,5.71,1111122 
DISL,ioos:station:DISL:CATA:1,2018-07-10T07:30:00Z,30.3085,-88.1395,2.053,6.05,1111122 
DISL,ioos:station:DISL:CATA:1,2018-07-10T08:30:00Z,30.3085,-88.1395,2.095,6.29,1111122 
DISL,ioos:station:DISL:CATA:1,2018-07-10T09:30:00Z,30.3085,-88.1395,2.155,3.92,1111122 
DISL,ioos:station:DISL:CATA:1,2018-07-10T10:30:00Z,30.3085,-88.1395,2.216,2.94,1111122 
DISL,ioos:station:DISL:CATA:1,2018-07-10T11:30:00Z,30.3085,-88.1395,2.261,2.98,1111122 
DISL,ioos:station:DISL:CATA:1,2018-07-10T12:30:00Z,30.3085,-88.1395,2.3,3.17,1111122 
DISL,ioos:station:DISL:CATA:1,2018-07-10T13:30:00Z,30.3085,-88.1395,2.316,3.62,1111122 
DISL,ioos:station:DISL:CATA:1,2018-07-10T14:30:00Z,30.3085,-88.1395,2.31,3.73,1111122 
DISL,ioos:station:DISL:CATA:1,2018-07-10T15:30:00Z,30.3085,-88.1395,2.276,4.52,1111122 
DISL,ioos:station:DISL:CATA:1,2018-07-10T16:30:00Z,30.3085,-88.1395,2.222,2.65,1111122 
DISL,ioos:station:DISL:CATA:1,2018-07-10T17:30:00Z,30.3085,-88.1395,2.143,3.6,1111122 
DISL,ioos:station:DISL:CATA:1,2018-07-10T18:30:00Z,30.3085,-88.1395,2.041,3.77,1111122 
DISL,ioos:station:DISL:CATA:1,2018-07-10T19:30:00Z,30.3085,-88.1395,1.897,5.29,1111122 
DISL,ioos:station:DISL:CATA:1,2018-07-10T20:30:00Z,30.3085,-88.1395,1.826,5.9,1111122 
DISL,ioos:station:DISL:CATA:1,2018-07-10T21:30:00Z,30.3085,-88.1395,1.775,6.52,1111122 
DISL,ioos:station:DISL:CATA:1,2018-07-10T22:30:00Z,30.3085,-88.1395,1.738,6.32,1111122 
DISL,ioos:station:DISL:CATA:1,2018-07-10T23:30:00Z,30.3085,-88.1395,1.741,5.5,1111122 
DISL,ioos:station:DISL:CATA:1,2018-07-11T00:30:00Z,30.3085,-88.1395,1.779,5.51,1111122 
DISL,ioos:station:DISL:CATA:1,2018-07-11T01:30:00Z,30.3085,-88.1395,1.661,6.16,1111122 
DISL,ioos:station:DISL:CATA:1,2018-07-11T02:30:00Z,30.3085,-88.1395,1.72,3.78,1111122 
DISL,ioos:station:DISL:CATA:1,2018-07-11T03:30:00Z,30.3085,-88.1395,1.8,5.64,1111122 
DISL,ioos:station:DISL:CATA:1,2018-07-11T04:30:00Z,30.3085,-88.1395,1.848,5.79,1111122 
DISL,ioos:station:DISL:CATA:1,2018-07-11T05:30:00Z,30.3085,-88.1395,1.904,5.73,1111122 
DISL,ioos:station:DISL:CATA:1,2018-07-11T06:30:00Z,30.3085,-88.1395,1.949,5.65,1111122 
DISL,ioos:station:DISL:CATA:1,2018-07-11T07:30:00Z,30.3085,-88.1395,1.983,5.41,1111122 
DISL,ioos:station:DISL:CATA:1,2018-07-11T08:30:00Z,30.3085,-88.1395,2.036,4.93,1111122 
DISL,ioos:station:DISL:CATA:1,2018-07-11T09:30:00Z,30.3085,-88.1395,2.095,5.04,1111122 
DISL,ioos:station:DISL:CATA:1,2018-07-11T10:30:00Z,30.3085,-88.1395,2.161,5.5,1111122 
DISL,ioos:station:DISL:CATA:1,2018-07-11T11:30:00Z,30.3085,-88.1395,2.207,5.27,1111122 
DISL,ioos:station:DISL:CATA:1,2018-07-11T12:30:00Z,30.3085,-88.1395,2.265,5.01,1111122 
DISL,ioos:station:DISL:CATA:1,2018-07-11T13:30:00Z,30.3085,-88.1395,2.308,5.72,1111122 
DISL,ioos:station:DISL:CATA:1,2018-07-11T14:30:00Z,30.3085,-88.1395,2.319,5.71,1111122 
DISL,ioos:station:DISL:CATA:1,2018-07-11T15:30:00Z,30.3085,-88.1395,2.303,5.56,1111122 
DISL,ioos:station:DISL:CATA:1,2018-07-11T16:30:00Z,30.3085,-88.1395,2.261,4.72,1111122 
DISL,ioos:station:DISL:CATA:1,2018-07-11T17:30:00Z,30.3085,-88.1395,2.171,3.73,1111122 
DISL,ioos:station:DISL:CATA:1,2018-07-11T18:30:00Z,30.3085,-88.1395,2.085,5.59,1111122 
DISL,ioos:station:DISL:CATA:1,2018-07-11T19:30:00Z,30.3085,-88.1395,1.973,7.38,1111122 
DISL,ioos:station:DISL:CATA:1,2018-07-11T20:30:00Z,30.3085,-88.1395,1.871,7.45,1111122 
DISL,ioos:station:DISL:CATA:1,2018-07-11T21:30:00Z,30.3085,-88.1395,1.763,7.32,1111122 
DISL,ioos:station:DISL:CATA:1,2018-07-11T22:30:00Z,30.3085,-88.1395,1.68,7.25,1111122 
DISL,ioos:station:DISL:CATA:1,2018-07-11T23:30:00Z,30.3085,-88.1395,1.669,7.43,1111122 
DISL,ioos:station:DISL:CATA:1,2018-07-12T00:30:00Z,30.3085,-88.1395,1.641,8.16,1111122 
DISL,ioos:station:DISL:CATA:1,2018-07-12T01:30:00Z,30.3085,-88.1395,1.645,7.54,1111122 
DISL,ioos:station:DISL:CATA:1,2018-07-12T02:30:00Z,30.3085,-88.1395,1.661,7.05,1111122 
DISL,ioos:station:DISL:CATA:1,2018-07-12T03:30:00Z,30.3085,-88.1395,1.72,6.49,1111122 
DISL,ioos:station:DISL:CATA:1,2018-07-12T04:30:00Z,30.3085,-88.1395,1.772,6.96,1111122 
DISL,ioos:station:DISL:CATA:1,2018-07-12T05:30:00Z,30.3085,-88.1395,1.823,6.85,1111122 
DISL,ioos:station:DISL:CATA:1,2018-07-12T06:30:00Z,30.3085,-88.1395,1.89,6.7,1111122 
DISL,ioos:station:DISL:CATA:1,2018-07-12T07:30:00Z,30.3085,-88.1395,1.952,6.94,1111122 